Cheboygan, MI

5:52 AM EDT on May 24, 2017 (GMT -0400)
Cheboygan

Weather History for KSLH - January, 2013

Change the Weather History Date:

Wednesday, January 9, 2013

  Actual Average (KMCD) Record (KMCD)
Temperature  
Mean Temperature 34 °F -  
Max Temperature 38 °F 23 °F 39 °F (2002)
Min Temperature 31 °F 13 °F -20 °F (1982)
Degree Days  
Heating Degree Days 30    
Moisture  
Dew Point 27 °F    
Average Humidity 71    
Maximum Humidity 82    
Minimum Humidity 62    
Precipitation  
Precipitation 0.00 in - - ()
Sea Level Pressure  
Sea Level Pressure 29.95 in    
Wind  
Wind Speed 12 mph (WSW)    
Max Wind Speed 26 mph    
Max Gust Speed 34 mph    
Visibility 10 miles    
Events      
Averages and records for this station are not official NWS values.
T = Trace of Precipitation, MM = Missing Value Source: NWS Daily Summary

Daily Weather History Graph

Daily Weather History Graph

Search for Another Location

Airport or City:

Trip Planner

Search our weather history database for the weather conditions in past years. The results will help you decide how hot, cold, wet, or windy it might be!

Date:

Astronomy

Jan. 09, 2013 Rise Set
Actual Time 8:17 AM EST 5:13 PM EST
Civil Twilight 7:43 AM EST 5:47 PM EST
Nautical Twilight 7:06 AM EST 6:24 PM EST
Astronomical Twilight 6:30 AM EST 7:00 PM EST
Moon 5:56 AM EST (1/9) 3:13 PM EST (1/9)
Length of Visible Light 10h 03m
Length of Day
8h 56m
Waning Crescent, 6% of the Moon is Illuminated
Jan 9
Waning Crescent
Jan 11
New
Jan 18
First Quarter
Jan 26
Full
Feb 3
Last Quarter

Hourly Weather History & Observations

Time (EST) Temp. Windchill Dew Point Humidity Pressure Visibility Wind Dir Wind Speed Gust Speed Precip Events Conditions
12:35 AM 32.0 °F 24.8 °F 26.2 °F 79% 29.93 in 7.0 mi SSE 8.1 mph - N/A   Clear
12:55 AM 31.8 °F 23.9 °F 25.9 °F 79% 29.92 in 7.0 mi SSE 9.2 mph - N/A   Clear
1:15 AM 32.0 °F 24.2 °F 26.1 °F 79% 29.90 in 7.0 mi SSE 9.2 mph - N/A   Clear
1:35 AM 32.0 °F 25.6 °F 25.9 °F 78% 29.90 in 7.0 mi South 6.9 mph - N/A   Clear
1:55 AM 32.0 °F 24.8 °F 25.5 °F 77% 29.88 in 7.0 mi SSE 8.1 mph - N/A   Scattered Clouds
2:15 AM 32.0 °F 24.8 °F 25.5 °F 77% 29.85 in 10.0 mi SSE 8.1 mph - N/A   Scattered Clouds
2:35 AM 32.4 °F 26.9 °F 25.3 °F 75% 29.85 in 10.0 mi SSE 5.8 mph - N/A   Clear
2:55 AM 32.5 °F 27.1 °F 25.3 °F 75% 29.85 in 10.0 mi SSE 5.8 mph - N/A   Scattered Clouds
3:15 AM 32.9 °F 26.7 °F 25.5 °F 74% 29.83 in 10.0 mi SSE 6.9 mph - N/A   Mostly Cloudy
3:35 AM 32.9 °F 27.5 °F 25.5 °F 74% 29.82 in 10.0 mi SSE 5.8 mph - N/A   Overcast
3:55 AM 33.1 °F 30.0 °F 25.9 °F 75% 29.82 in 10.0 mi SE 3.5 mph - N/A   Overcast
4:15 AM 32.5 °F 27.1 °F 26.2 °F 78% 29.81 in 10.0 mi SE 5.8 mph - N/A   Mostly Cloudy
4:36 AM 33.3 °F 28.9 °F 26.1 °F 75% 29.80 in 10.0 mi SSE 4.6 mph - N/A   Mostly Cloudy
4:55 AM 34.5 °F 29.4 °F 26.8 °F 73% 29.79 in 10.0 mi South 5.8 mph - N/A   Overcast
5:15 AM 37.9 °F 31.5 °F 28.0 °F 68% 29.77 in 10.0 mi South 9.2 mph 16.1 mph N/A   Overcast
5:36 AM 37.8 °F 30.2 °F 28.4 °F 69% 29.78 in 10.0 mi SSW 11.5 mph 17.3 mph N/A   Overcast
5:55 AM 37.6 °F 30.5 °F 29.3 °F 72% 29.76 in 10.0 mi SSW 10.4 mph 17.3 mph N/A   Overcast
6:15 AM 37.4 °F 29.8 °F 29.8 °F 74% 29.76 in 10.0 mi SSW 11.5 mph 17.3 mph N/A   Overcast
6:35 AM 37.4 °F 31.4 °F 30.0 °F 75% 29.76 in 10.0 mi SSW 8.1 mph - N/A   Overcast
6:55 AM 37.6 °F 30.0 °F 30.2 °F 75% 29.76 in 10.0 mi SSW 11.5 mph 16.1 mph N/A   Overcast
7:15 AM 37.6 °F 31.0 °F 30.6 °F 76% 29.75 in 10.0 mi SSW 9.2 mph 16.1 mph N/A   Overcast
7:35 AM 37.6 °F 31.0 °F 31.1 °F 77% 29.76 in 10.0 mi SW 9.2 mph - N/A   Overcast
7:55 AM 38.7 °F 29.1 °F 32.0 °F 77% 29.76 in 10.0 mi WSW 18.4 mph 25.3 mph N/A   Overcast
8:15 AM 38.5 °F 31.1 °F 32.0 °F 78% 29.77 in 10.0 mi WSW 11.5 mph 23.0 mph N/A   Overcast
8:35 AM 38.3 °F 29.7 °F 31.3 °F 76% 29.78 in 7.0 mi West 15.0 mph 23.0 mph N/A   Overcast
8:55 AM 37.8 °F 29.0 °F 30.9 °F 76% 29.78 in 7.0 mi WSW 15.0 mph 21.9 mph N/A   Overcast
9:15 AM 37.8 °F 29.8 °F 30.7 °F 76% 29.80 in 7.0 mi West 12.7 mph 23.0 mph N/A   Overcast
9:35 AM 38.1 °F 29.1 °F 30.6 °F 74% 29.81 in 10.0 mi WSW 16.1 mph 26.5 mph N/A   Overcast
9:55 AM 38.3 °F 28.7 °F 30.6 °F 74% 29.81 in 10.0 mi WSW 18.4 mph 25.3 mph N/A   Overcast
10:15 AM 36.9 °F 26.8 °F 31.8 °F 82% 29.82 in 7.0 mi WSW 18.4 mph 29.9 mph N/A   Overcast
10:35 AM 37.6 °F 28.4 °F 31.1 °F 77% 29.82 in 10.0 mi WSW 16.1 mph 23.0 mph N/A   Scattered Clouds
10:55 AM 38.5 °F 29.2 °F 30.2 °F 72% 29.82 in 10.0 mi WSW 17.3 mph 24.2 mph N/A   Clear
11:15 AM 38.5 °F 29.2 °F 29.8 °F 71% 29.82 in 10.0 mi WSW 17.3 mph 28.8 mph N/A   Mostly Cloudy
11:35 AM 37.8 °F 28.0 °F 29.8 °F 73% 29.83 in 10.0 mi WSW 18.4 mph 25.3 mph N/A   Overcast
11:55 AM 37.2 °F 29.1 °F 29.8 °F 75% 29.83 in 10.0 mi WSW 12.7 mph 26.5 mph N/A   Overcast
12:15 PM 37.2 °F 27.9 °F 29.3 °F 73% 29.83 in 10.0 mi West 16.1 mph 26.5 mph N/A   Overcast
12:35 PM 36.7 °F 25.7 °F 29.5 °F 75% 29.83 in 10.0 mi WSW 21.9 mph 28.8 mph N/A   Overcast
12:55 PM 36.5 °F 27.0 °F 27.3 °F 69% 29.84 in 10.0 mi West 16.1 mph 27.6 mph N/A   Overcast
1:15 PM 36.5 °F 28.2 °F 27.7 °F 70% 29.85 in 10.0 mi West 12.7 mph 28.8 mph N/A   Overcast
1:35 PM 36.7 °F 26.9 °F 27.9 °F 70% 29.85 in 10.0 mi West 17.3 mph 26.5 mph N/A   Overcast
1:55 PM 36.7 °F 27.6 °F 28.0 °F 71% 29.87 in 10.0 mi West 15.0 mph 28.8 mph N/A   Overcast
2:15 PM 37.0 °F 27.0 °F 27.5 °F 68% 29.88 in 10.0 mi WSW 18.4 mph 29.9 mph N/A   Overcast
2:35 PM 37.0 °F 27.7 °F 27.3 °F 68% 29.90 in 10.0 mi WSW 16.1 mph 27.6 mph N/A   Overcast
2:55 PM 36.9 °F 26.8 °F 27.3 °F 68% 29.92 in 10.0 mi WSW 18.4 mph 26.5 mph N/A   Overcast
3:15 PM 36.9 °F 26.8 °F 27.1 °F 68% 29.94 in 10.0 mi West 18.4 mph 26.5 mph N/A   Overcast
3:35 PM 36.5 °F 26.7 °F 26.6 °F 67% 29.95 in 10.0 mi West 17.3 mph 27.6 mph N/A   Overcast
3:55 PM 36.5 °F 25.7 °F 25.7 °F 65% 29.98 in 10.0 mi West 20.7 mph 33.4 mph N/A   Overcast
4:16 PM 36.0 °F 25.0 °F 24.8 °F 64% 29.99 in 10.0 mi West 20.7 mph 25.3 mph N/A   Overcast
4:35 PM 35.8 °F 25.7 °F 25.3 °F 66% 30.02 in 10.0 mi West 17.3 mph 34.5 mph N/A   Overcast
4:55 PM 35.6 °F 25.9 °F 23.9 °F 62% 30.05 in 10.0 mi West 16.1 mph 26.5 mph N/A   Overcast
5:15 PM 35.4 °F 24.9 °F 24.6 °F 65% 30.07 in 10.0 mi West 18.4 mph 21.9 mph N/A   Overcast
5:35 PM 35.6 °F 26.2 °F 24.4 °F 64% 30.09 in 10.0 mi West 15.0 mph 32.2 mph N/A   Overcast
5:55 PM 35.2 °F 22.7 °F 23.7 °F 63% 30.10 in 10.0 mi West 26.5 mph 31.1 mph N/A   Overcast
6:15 PM 35.6 °F 26.2 °F 23.5 °F 62% 30.13 in 10.0 mi West 15.0 mph 26.5 mph N/A   Overcast
6:35 PM 35.6 °F 26.6 °F 24.4 °F 64% 30.15 in 10.0 mi West 13.8 mph 23.0 mph N/A   Overcast
6:55 PM 35.6 °F 26.2 °F 25.0 °F 65% 30.17 in 10.0 mi West 15.0 mph 23.0 mph N/A   Overcast
7:15 PM 35.8 °F 26.1 °F 24.6 °F 64% 30.19 in 10.0 mi West 16.1 mph 29.9 mph N/A   Overcast
7:36 PM 36.0 °F 26.0 °F 24.6 °F 63% 30.22 in 10.0 mi West 17.3 mph 23.0 mph N/A   Overcast
7:55 PM 36.0 °F 26.3 °F 24.6 °F 63% 30.23 in 10.0 mi West 16.1 mph 23.0 mph N/A   Overcast
8:15 PM 35.8 °F 27.3 °F 24.8 °F 64% 30.24 in 10.0 mi West 12.7 mph 21.9 mph N/A   Overcast
9:15 PM 35.6 °F 26.2 °F 24.3 °F 63% 30.28 in 10.0 mi West 15.0 mph 23.0 mph N/A   Overcast
9:35 PM 35.4 °F 26.4 °F 24.8 °F 65% 30.28 in 10.0 mi West 13.8 mph 25.3 mph N/A   Overcast
9:55 PM 35.1 °F 26.9 °F 24.6 °F 66% 30.29 in 10.0 mi West 11.5 mph 23.0 mph N/A   Overcast
10:15 PM 35.1 °F 24.5 °F 24.6 °F 66% 30.31 in 10.0 mi West 18.4 mph 23.0 mph N/A   Overcast
10:35 PM 34.9 °F 26.6 °F 24.8 °F 67% 30.32 in 10.0 mi West 11.5 mph 24.2 mph N/A   Overcast
10:55 PM 34.3 °F 25.0 °F 24.1 °F 66% 30.33 in 10.0 mi West 13.8 mph 24.2 mph N/A   Mostly Cloudy
11:15 PM 34.0 °F 26.0 °F 24.4 °F 68% 30.36 in 10.0 mi West 10.4 mph - N/A   Overcast
11:35 PM 33.4 °F 23.9 °F 23.9 °F 68% 30.36 in 10.0 mi West 13.8 mph 20.7 mph N/A   Scattered Clouds
11:55 PM 32.9 °F 22.4 °F 23.5 °F 68% 30.37 in 10.0 mi West 16.1 mph 21.9 mph N/A   Clear